This is the latest recevied weather packets stored in our database for station/object OK2VOP-6. If no packets are shown the sender has not sent any weather packets the latest 10 day(s).
| Time | Temp. | Humidity | Pressure | Rain* | Wind** | Luminosity | Snow |
|---|---|---|---|---|---|---|---|
| 1787989875 | 18.33° C | 75% | - | 0 mm | - | - | - |
| 1787988670 | 18.33° C | 76% | - | 0 mm | - | - | - |
| 1787987466 | 18.33° C | 75% | - | 0 mm | - | - | - |
| 1787986261 | 18.33° C | 76% | - | 0 mm | - | - | - |
| 1787985056 | 18.89° C | 77% | - | 0 mm | - | - | - |
| 1787983851 | 18.33° C | 77% | - | 0 mm | - | - | - |
| 1787982646 | 17.78° C | 77% | - | 0 mm | - | - | - |
| 1787981441 | 17.22° C | 77% | - | 0 mm | - | - | - |
| 1787980236 | 16.67° C | 76% | - | 0 mm | - | - | - |
| 1787979032 | 16.11° C | 75% | - | 0 mm | - | - | - |
| 1787977827 | 16.11° C | 75% | - | 0 mm | - | - | - |
| 1787976621 | 16.11° C | 73% | - | 0 mm | - | - | - |
| 1787975417 | 16.11° C | 73% | - | 0 mm | - | - | - |
| 1787974212 | 16.67° C | 72% | - | 0.51 mm | - | - | - |
| 1787973007 | 17.22° C | 74% | - | 0.76 mm | - | - | - |
| 1787971802 | 17.78° C | 75% | - | 1.02 mm | - | - | - |
| 1787970598 | 17.78° C | 74% | - | 1.52 mm | - | - | - |
| 1787969393 | 17.78° C | 74% | - | 2.54 mm | - | - | - |
| 1787968187 | 17.78° C | 74% | - | 2.79 mm | - | - | - |
| 1787966983 | 17.78° C | 72% | - | 2.29 mm | - | - | - |
| 1787965778 | 17.78° C | 72% | - | 1.02 mm | - | - | - |
| 1787963368 | 17.22° C | 69% | - | 8.89 mm | - | - | - |
| 1787962164 | 17.22° C | 68% | - | 10.16 mm | - | - | - |
| 1787960959 | 17.78° C | 63% | - | 2.54 mm | - | - | - |
| 1787959753 | 19.44° C | 53% | - | 1.78 mm | - | - | - |
* Rain latest hour (hover to see other rain measurements)
** Current wind speed in m/s (hover to see current wind gust speed)